Regional Weather Roundup
Issued by NWS

Home | Current Version | Previous Version | Graphics & Text | Print | Product List | Glossary On
Versions: 1 2 3 4 5 6 7 8 9 10 11 12 13 14 15 16 17 18 19 20 21 22 23 24 25 26 27 28 29 30 31 32 33 34 35 36 37 38 39 40 41 42 43 44 45 46 47 48 49 50
000
ASUS43 KOAX 251902
RWRNE

WEATHER ROUNDUP FOR NEBRASKA
NATIONAL WEATHER SERVICE OMAHA NE
100 PM CST TUE NOV 25 2014

NOTES: SATELLITE DATA IS BEING USED TO AUGMENT CLOUD COVER ABOVE
       12000 FEET.
       "FAIR" INDICATES FEW OR NO CLOUDS BELOW 12,000 FEET WITH NO
       SIGNIFICANT WEATHER AND/OR OBSTRUCTIONS TO VISIBILITY.

  * THESE STATIONS DO NOT REPORT WEATHER SUCH AS RAIN...SNOW OR FOG.

NEZ001>004-019>022-054>056-252000-
NEBRASKA PANHANDLE

CITY           SKY/WX    TMP DP  RH WIND       PRES   REMARKS
SCOTTSBLUFF    CLOUDY    48  20  32 NW30G41   29.82F
ALLIANCE       CLOUDY    43  18  36 W23       29.79F
CHADRON        CLOUDY    41  22  46 NW17      29.79F
KIMBALL        CLOUDY    45  19  36 W31G39    29.83F
SIDNEY         CLOUDY    46  19  34 NW28G36   29.85F
$$

NEZ057>060-069>072-079>082-252000-
SOUTHWEST NEBRASKA

CITY           SKY/WX    TMP DP  RH WIND       PRES   REMARKS
NORTH PLATTE   CLOUDY    42  17  36 S13       29.88F
IMPERIAL       CLOUDY    44  14  29 SW12      29.89F
LEXINGTON      CLOUDY    44  21  40 SW17G23   29.94F
MCCOOK         CLOUDY    46  16  30 SW17      29.94F
OGALLALA       CLOUDY    38  24  58 W8        29.87F WCI  32
$$

NEZ005>010-023>029-035>040-094-252000-
NORTH CENTRAL NEBRASKA

CITY           SKY/WX    TMP DP  RH WIND       PRES   REMARKS
VALENTINE      CLOUDY    39  21  48 SW9       29.81F WCI  33
AINSWORTH      CLOUDY    38  22  52 S9        29.82F WCI  32
BROKEN BOW     CLOUDY    42  20  41 S14G28    29.90F
O`NEILL        PTSUNNY   44  26  48 S12       29.88F
ORD            PTSUNNY   43  21  41 SW12      29.91F
THEDFORD       CLOUDY    41  19  41 SW13G23   29.84F
$$

NEZ041-046>049-061>064-073>077-083>087-252000-
SOUTH CENTRAL NEBRASKA

CITY           SKY/WX    TMP DP  RH WIND       PRES   REMARKS
GRAND ISLAND   PTSUNNY   45  24  43 SW16      29.97F
AURORA         MOSUNNY   44  25  47 SW13      29.98F
HASTINGS       MOSUNNY   45  24  43 SW12G18   29.97F
HEBRON         SUNNY     46  22  37 W15G21    30.03F
HOLDREGE       PTSUNNY   44  21  40 SW14G20   29.96F
KEARNEY *      MOSUNNY   45  19  36 S14G20    29.97F
YORK           SUNNY     43  27  52 SW12      30.00F
$$

NEZ011>018-030>034-042>045-252000-
NORTHEAST NEBRASKA

CITY           SKY/WX    TMP DP  RH WIND       PRES   REMARKS
NORFOLK        MOSUNNY   44  27  51 SW14      29.95F
ALBION         MOSUNNY   44  25  46 S15       29.94F
BLAIR          SUNNY     41  21  44 S13       30.02F
COLUMBUS *     SUNNY     45  27  49 S8        30.00F
FREMONT        SUNNY     43  26  51 S8        30.02F
TEKAMAH        SUNNY     41  23  48 S12       30.03F
WAYNE          MOSUNNY   42  27  55 SW14      29.97F
$$

NEZ050>053-065>068-078-088>093-252000-
SOUTHEAST NEBRASKA

CITY           SKY/WX    TMP DP  RH WIND       PRES   REMARKS
LINCOLN        SUNNY     45  25  45 SW12      30.04F
OMAHA EPPLEY   MOSUNNY   39  17  41 S10       30.06F WCI  32
BEATRICE       SUNNY     46  26  46 SW16G22   30.04F
FALLS CITY     PTSUNNY   43  21  41 SW9       30.10F
NEBRASKA CITY  SUNNY     42  18  38 SW9       30.07F
PLATTSMOUTH    SUNNY     39  18  41 S13       30.06F WCI  32
$$

NEZ044-045-051>053-067-252000-
OMAHA AREA

CITY           SKY/WX    TMP DP  RH WIND       PRES   REMARKS
OMAHA EPPLEY   MOSUNNY   39  17  41 S10       30.06F WCI  32
BLAIR          SUNNY     41  21  44 S13       30.02F
FREMONT        SUNNY     43  26  51 S8        30.02F
MILLARD        SUNNY     42  21  44 S8        30.05F
OFFUTT AFB     SUNNY     41  19  40 S9        30.05F
PLATTSMOUTH    SUNNY     39  18  41 S13       30.06F WCI  32
WAHOO          FAIR      42  25  50 S10G17    30.02F
$$



USA.gov is the U.S. government's official web portal to all federal, state and local government web resources and services.